Theta_e
312 312 312 312 310 308 309 323 311 320 325 309 311 304 304 300 303 304 301 302 299 298 297 296 297 297 299 303 302 297 302 299 294 298 305 308 307 305 304 297 297 300 300 300
312 311 311 312 310 308 326 316 314 319 322 304 303 304 302 302 301 301 300 299 300 301 297 294 296 297 302 303 302 300 302 296 290 292 297 302 302 297 302 304 305 299 295 298
311 311 311 311 310 308 323 319 309 310 311 311 304 301 297 295 303 301 301 300 301 300 297 300 296 297 300 302 302 304 306 299 295 290 292 298 295 296 298 298 296 298 298 300
311 312 311 311 310 308 321 314 307 307 301 300 302 301 298 295 294 301 303 300 299 298 295 297 295 298 300 301 302 305 304 296 297 297 297 296 295 296 295 292 292 293 296 296
311 311 311 311 310 308 318 313 309 307 305 302 301 299 298 295 296 299 298 298 299 299 297 298 296 298 299 298 303 303 304 295 298 294 297 297 294 295 296 294 294 293 296 295
311 311 311 311 310 312 315 315 312 308 298 300 301 299 297 297 299 300 302 301 300 297 300 303 304 306 306 305 301 300 300 297 295 290 295 295 291 290 292 292 292 292 290 293
310 311 311 312 311 311 316 313 312 305 299 302 299 298 298 297 299 298 301 302 301 303 308 307 307 306 304 304 303 304 299 298 296 289 293 282 288 293 295 294 294 296 296 296
310 310 311 312 312 311 317 317 312 308 301 302 299 298 298 299 301 301 301 303 307 310 305 300 296 297 297 298 300 301 302 298 292 289 289 289 290 291 288 287 290 296 295 297
310 310 311 311 312 311 319 316 317 312 305 302 301 300 300 301 301 300 301 307 311 309 301 299 289 288 290 291 294 300 300 300 294 291 285 281 291 297 299 296 287 296 298 297
310 310 311 312 312 312 315 317 321 314 307 307 306 303 302 305 303 301 303 303 304 308 299 294 292 292 294 288 289 292 294 294 290 290 289 291 297 299 300 287 289 299 300 300
310 310 311 311 312 312 312 316 320 315 308 310 310 308 305 305 305 300 304 303 304 304 298 296 296 294 295 293 295 292 292 290 291 291 288 283 300 299 293 297 302 301 301 302
309 310 310 311 311 311 311 309 318 317 310 311 315 315 314 311 309 307 308 304 303 305 300 301 301 296 298 296 290 299 292 295 294 293 293 299 302 301 304 303 301 301 301 302
309 310 310 311 311 311 310 310 313 314 306 305 308 309 316 318 316 316 306 308 309 309 312 304 303 296 301 293 294 296 298 301 296 296 299 299 301 303 304 304 304 303 303 302
309 310 310 310 310 310 309 312 316 314 309 299 305 315 313 317 317 316 316 313 313 315 309 304 301 298 304 298 299 298 300 301 297 297 300 299 301 302 303 304 304 302 303 303
310 311 310 310 310 309 312 316 317 318 309 301 302 309 312 314 316 314 314 313 311 308 305 302 300 303 302 302 301 298 303 300 296 294 300 300 299 303 304 303 302 303 303 303
310 311 310 309 309 308 316 312 318 320 317 307 299 311 312 314 314 313 312 311 311 309 305 302 304 307 303 298 296 303 305 306 306 300 305 304 305 304 305 304 304 304 304 305
309 309 309 307 308 313 311 307 312 312 319 307 302 304 312 312 312 311 311 311 309 307 305 303 303 304 302 301 298 304 305 306 306 306 305 302 304 302 305 305 305 305 306 307
309 308 307 309 308 308 310 316 311 313 313 310 302 303 306 310 305 304 310 306 308 307 306 307 304 305 304 298 304 304 304 304 305 305 306 305 306 306 305 306 307 306 306 307
308 308 309 314 314 313 314 310 310 316 313 304 305 301 299 308 307 308 305 307 301 308 303 304 305 302 297 302 304 304 304 304 304 305 305 305 304 305 306 306 307 306 306 307
308 308 305 309 312 306 313 313 311 309 310 308 302 307 301 308 308 304 304 305 302 298 303 306 301 297 305 308 308 307 307 306 306 303 302 303 303 304 305 306 307 307 307 306
311 307 304 307 309 313 311 305 305 307 303 307 307 307 304 308 301 301 306 302 303 295 299 298 298 297 302 307 307 308 309 308 307 307 307 307 306 305 305 306 307 307 307 306
306 303 306 310 313 310 303 303 305 302 299 306 305 306 307 307 309 302 303 298 300 292 303 297 294 301 305 304 305 307 309 309 308 309 308 308 307 308 307 307 307 308 308 308
305 302 305 311 307 296 296 291 298 299 306 307 306 303 307 306 306 303 301 295 295 303 295 294 297 304 304 306 306 306 308 308 308 308 308 309 308 308 307 307 309 309 308 310
303 299 292 302 300 300 299 299 301 304 305 306 306 304 305 305 301 300 294 298 300 293 291 292 300 304 305 306 307 307 306 306 306 307 308 308 308 308 308 307 310 308 308 310
298 301 291 300 307 306 306 307 305 307 309 306 304 304 303 301 297 298 296 292 291 294 294 299 303 307 306 306 307 307 306 306 306 307 307 307 307 308 308 309 309 310 311 310
301 299 297 303 301 301 303 304 303 307 306 306 305 301 298 296 297 293 292 290 290 295 300 304 307 307 307 307 308 308 307 308 308 308 308 309 308 308 309 310 308 309 310 310
302 304 308 306 304 303 304 305 305 308 303 298 300 295 294 297 291 291 296 293 297 300 302 305 305 304 303 306 305 307 307 308 308 308 309 309 310 310 308 307 309 310 311 311
Wind_Speed
25 24 22 20 14 7 5 2 1 10 9 4 3 7 4 4 8 10 6 6 8 8 9 7 6 7 8 9 17 15 11 8 16 20 22 27 15 21 22 16 18 17 16 13
26 26 25 23 18 9 4 3 4 8 7 4 6 6 6 6 8 10 7 6 6 7 6 6 6 6 11 11 16 12 10 6 15 13 12 9 10 20 30 18 19 18 17 14
26 27 27 25 22 12 4 1 1 4 6 4 4 4 5 4 6 6 4 5 2 8 5 2 7 8 7 16 12 8 8 11 14 15 19 15 19 14 12 15 12 19 18 16
25 26 29 27 25 16 4 4 5 4 4 6 6 4 2 5 3 3 7 0 7 7 5 10 2 14 15 12 3 10 6 13 16 18 21 21 24 18 15 8 16 13 10 9
25 25 27 30 28 19 5 2 2 4 4 1 2 0 3 4 3 3 3 6 9 6 6 10 16 16 12 5 8 7 5 10 16 20 21 17 22 15 10 10 10 18 16 15
24 24 25 28 30 19 5 2 2 3 2 3 3 4 2 3 3 3 3 6 9 5 10 12 13 10 8 7 6 9 8 9 13 13 19 19 10 13 1 5 1 3 7 9
23 24 23 23 25 19 4 4 3 3 4 0 4 2 1 1 1 2 2 4 6 10 13 4 5 4 3 4 3 5 11 12 5 9 17 7 8 14 14 7 5 7 3 4
22 22 22 22 21 21 5 2 4 2 3 2 5 2 1 2 4 3 2 4 6 10 8 6 5 5 5 1 4 5 7 10 6 5 9 3 3 4 3 3 5 9 6 5
20 21 21 20 19 20 5 5 4 3 2 3 2 3 1 2 2 6 2 2 4 8 4 2 4 5 6 3 8 1 6 3 7 7 6 5 4 9 9 1 2 3 8 6
21 20 19 19 18 17 8 4 4 4 3 5 4 2 1 0 2 3 1 3 3 5 4 4 4 3 3 6 7 9 9 8 7 6 3 3 10 9 1 4 5 4 6 7
21 20 19 18 16 15 9 2 4 5 3 6 7 5 4 4 4 4 5 6 5 3 4 4 3 4 4 5 7 7 6 6 4 6 2 3 12 4 4 4 2 3 5 7
20 20 19 17 15 13 10 4 1 3 6 6 3 7 7 6 3 4 4 4 2 4 6 2 2 5 3 6 5 3 3 5 5 3 4 2 3 3 2 2 3 3 4 7
21 20 19 17 14 10 6 5 3 4 5 6 7 9 12 10 9 6 5 4 1 4 4 6 4 6 4 6 6 5 4 5 7 5 6 6 3 3 3 4 5 2 3 4
21 21 19 17 13 9 6 4 1 4 4 5 3 3 5 4 9 11 10 7 3 0 4 6 7 7 4 7 6 9 7 3 7 8 8 4 8 6 4 6 3 2 3 2
22 22 20 17 13 9 7 5 4 2 5 5 5 2 7 7 9 10 8 8 7 5 5 6 9 7 4 8 6 9 7 8 6 5 4 6 1 5 8 7 6 5 5 6
24 23 21 16 11 7 5 5 5 4 3 4 4 3 5 7 7 9 10 8 7 6 5 8 5 2 6 6 9 10 7 9 8 7 1 6 1 4 8 8 6 7 6 5
27 25 22 15 7 6 4 5 5 1 3 4 4 3 5 3 4 4 4 4 5 5 6 6 8 5 5 7 10 13 7 7 8 6 5 7 9 7 9 8 7 6 8 7
30 24 17 6 9 4 4 4 3 3 4 4 4 3 4 4 5 4 1 4 4 6 4 2 6 4 5 5 9 5 2 5 7 7 9 4 4 8 7 7 8 8 9 8
31 20 4 4 4 3 4 10 4 4 5 4 3 4 3 4 3 2 4 3 4 2 4 3 3 4 6 9 8 5 4 7 8 9 10 10 9 9 8 8 9 9 8 7
27 7 4 3 4 7 5 4 5 5 5 5 7 4 7 3 1 4 3 2 3 4 2 2 4 5 13 9 8 8 9 9 10 10 12 12 12 11 10 9 9 8 8 6
6 6 3 7 6 5 4 3 4 3 4 5 4 5 7 4 5 6 0 3 2 4 4 4 3 4 6 7 7 7 7 8 12 13 12 12 10 10 8 8 9 8 9 8
8 7 7 5 4 3 4 2 2 5 3 2 4 2 3 2 2 4 3 3 2 5 1 4 3 4 6 6 7 7 7 7 9 11 14 16 16 13 10 9 8 9 10 9
2 4 4 2 1 3 2 2 2 3 2 1 4 5 2 4 2 2 3 6 4 1 4 4 6 3 6 6 6 7 7 7 10 12 12 12 12 14 9 11 10 10 11 10
4 3 6 2 1 2 3 5 7 6 6 8 7 6 3 2 2 2 6 3 2 5 4 5 4 7 6 6 7 8 10 11 11 11 11 12 12 12 14 14 13 11 11 11
4 2 3 3 3 6 7 6 7 8 6 7 6 4 4 3 3 3 4 4 6 5 4 4 7 4 7 7 8 10 9 9 9 10 11 11 12 11 13 13 8 13 11 12
3 4 4 3 6 8 8 8 8 7 5 5 4 5 3 4 2 4 7 4 5 3 5 5 7 12 16 16 12 11 10 9 9 9 9 10 12 11 13 14 16 14 13 12
4 4 4 6 7 8 8 8 8 6 5 5 4 5 3 2 3 4 3 5 5 7 11 13 15 14 14 13 16 14 11 11 8 8 9 10 10 12 12 11 9 11 10 11
Wind_Direction
356 359 358 358 353 330 272 306 31 6 313 56 39 56 28 360 17 12 12 2 340 352 340 323 345 4 13 9 344 325 315 289 285 290 301 292 285 288 287 266 261 251 262 278
356 356 358 357 353 332 300 61 34 22 296 58 90 106 88 50 19 25 6 11 357 348 326 310 340 350 1 8 339 340 327 295 300 291 276 345 359 354 330 321 299 273 271 259
357 355 356 357 355 334 283 212 184 85 53 47 27 113 63 80 43 58 9 12 340 332 314 305 301 316 335 338 334 336 302 282 283 288 295 285 281 284 309 334 300 284 257 278
359 358 355 357 356 340 278 349 72 357 39 62 65 72 60 55 49 40 11 324 3 350 304 318 311 328 329 318 74 303 278 280 285 290 299 286 271 264 275 287 311 300 351 333
0 1 359 356 355 339 70 23 141 94 94 69 84 69 63 26 54 322 50 341 342 334 309 327 317 327 328 339 329 335 322 289 311 294 290 288 270 247 255 264 262 274 304 322
359 2 4 1 0 346 62 78 107 287 172 138 252 56 56 41 319 151 310 328 317 342 351 315 302 294 294 283 315 340 317 315 315 307 340 304 278 22 339 81 4 301 325 345
359 360 2 6 5 3 27 31 296 270 99 273 60 125 278 334 6 343 341 324 327 358 327 279 219 202 167 231 263 297 320 326 335 305 311 12 360 7 343 345 33 22 22 30
357 359 359 2 6 359 30 33 312 337 111 77 157 187 243 225 173 227 299 0 347 324 284 275 267 188 208 159 331 328 348 317 316 302 329 120 15 11 332 341 33 347 0 40
354 357 357 358 360 358 316 43 314 320 256 136 129 185 242 282 232 193 221 34 329 316 287 288 322 25 323 337 338 329 323 252 286 333 316 9 352 2 187 206 167 303 343 354
351 354 355 353 354 355 324 43 342 279 282 144 200 225 344 166 246 295 243 358 325 308 332 17 357 1 307 329 321 333 331 347 351 345 324 98 11 340 308 283 32 8 359 24
345 348 348 348 346 351 338 27 10 311 289 147 208 186 184 180 242 308 76 223 167 299 328 327 32 298 24 272 320 323 312 328 9 322 354 289 12 342 9 35 109 327 3 8
339 339 342 342 339 337 330 277 70 315 267 24 250 239 243 250 287 298 169 6 285 5 303 301 301 283 211 297 309 175 285 340 312 282 281 21 310 342 105 323 334 10 356 20
331 332 333 334 331 328 325 305 328 249 269 221 219 221 207 224 229 231 284 164 54 202 320 317 301 280 276 285 290 287 205 193 254 297 159 243 236 206 219 222 287 332 57 43
326 326 326 326 322 313 293 277 3 268 296 282 135 124 207 197 207 213 231 290 102 358 235 265 274 267 241 277 290 280 297 164 269 266 247 233 217 228 209 187 217 190 151 141
326 324 324 322 316 302 269 262 229 254 304 323 309 250 224 208 205 214 210 219 229 227 229 239 265 264 290 260 293 269 243 258 261 292 53 259 182 204 196 208 197 188 183 166
328 326 323 315 302 282 244 212 171 192 263 285 282 83 202 183 206 219 219 222 231 248 265 286 267 79 266 264 272 288 250 247 253 265 337 272 228 217 202 209 206 200 220 226
329 326 321 312 252 223 269 1 37 334 239 254 270 236 140 207 203 207 208 196 226 256 261 256 270 225 214 267 269 287 277 241 229 239 247 229 215 204 200 208 209 203 248 262
325 327 323 357 151 266 201 117 346 272 264 250 268 255 228 175 228 238 190 224 209 200 277 222 243 134 235 250 242 257 270 248 211 216 209 292 182 207 215 221 241 250 250 247
320 321 208 208 226 209 61 339 262 212 291 287 237 272 315 168 239 283 198 262 249 90 246 221 243 227 222 241 254 260 243 222 219 204 201 210 219 228 235 236 243 254 262 241
309 276 254 189 53 341 238 183 196 194 192 224 258 280 268 251 285 295 286 190 262 261 155 131 234 244 239 251 257 270 257 239 221 216 211 221 230 238 243 236 243 252 257 231
347 339 322 343 309 236 219 235 235 155 225 204 246 278 281 125 287 313 332 301 271 265 118 257 224 248 207 187 228 242 235 234 231 234 245 237 247 235 250 241 236 238 225 214
330 303 293 278 249 221 259 248 196 232 292 160 277 350 282 102 269 268 171 257 233 256 83 252 255 246 181 198 233 241 240 244 249 252 252 253 242 248 253 249 249 228 222 220
182 214 243 293 170 1 266 289 240 268 300 12 301 276 252 166 213 282 271 236 231 116 232 249 230 145 198 227 235 237 230 255 266 267 264 258 252 233 234 266 238 234 220 218
269 312 327 299 272 257 286 301 307 317 293 313 312 286 263 130 169 231 257 286 250 237 229 239 258 200 233 236 236 249 253 259 260 265 267 262 254 237 217 224 255 226 223 224
272 270 263 247 320 286 291 304 290 290 292 300 286 243 245 176 181 237 254 248 248 231 229 246 2 282 289 286 264 253 249 256 266 267 266 261 260 255 248 228 242 237 233 238
249 234 258 254 279 307 320 314 311 327 316 296 253 259 265 239 188 230 218 248 241 283 296 340 343 343 329 313 296 277 269 265 270 273 264 267 262 256 248 232 215 235 231 226
239 231 242 278 293 297 306 315 318 349 292 289 294 261 241 104 244 261 268 239 318 331 321 313 313 304 306 296 296 277 263 256 264 264 268 272 277 274 243 220 212 231 221 222